SCP
0 0 -0 -0 -0 -0 0 0 -0 0 0 -0 0 0 0 0 0 -0 -0 -0 -0 -0 -0 -0 -0 -0 -0 -0 0 0 -0 -0 -0 0 0 0 0 0
0 0 0 0 0 0 0 0 0 0 0 0 0 0 0 0 0 -0 0 -0 -0 -0 -0 -0 -0 -0 -0 -0 -0 0 0 -0 0 0 0 0 0 0
0 0 0 0 0 0 0 0 0 0 -0 0 0 0 0 0 0 0 0 0 0 0 -0 -0 -0 -0 -0 -0 -0 0 0 0 0 0 0 0 0 0
0 0 0 0 0 0 0 0 0 0 0 -0 0 0 0 0 0 0 0 0 0 0 0 0 -0 -0 0 -0 0 0 0 0 0 0 0 0 0 0
0 0 0 0 0 0 0 0 0 0 0 0 0 0 0 0 0 0 0 0 0 0 0 0 0 0 0 0 0 0 0 0 0 0 0 0 0 0
0 0 0 0 0 0 0 0 0 0 0 0 0 0 0 0 0 0 0 0 0 0 0 0 0 0 0 0 0 0 0 0 0 0 0 0 0 0
0 0 0 0 0 0 0 0 0 0 0 0 0 0 0 0 0 0 0 0 0 0 0 0 0 0 0 0 0 0 0 0 0 0 0 0 0 0
0 0 0 0 0 0 0 0 0 0 0 0 0 0 0 0 0 0 0 0 0 0 0 0 0 0 0 0 0 0 0 0 0 0 0 0 0 0
0 0 0 0 0 0 0 0 0 0 0 0 0 0 0 0 0 0 0 0 0 0 0 0 0 0 0 0 0 0 0 0 0 0 0 0 0 0
0 0 0 0 0 0 0 0 0 0 0 0 0 0 0 0 0 0 0 0 0 0 0 0 0 0 0 0 0 0 0 0 0 0 0 0 0 0
0 0 0 0 0 0 0 0 0 0 0 0 0 0 0 0 0 0 0 0 0 0 0 0 0 0 0 0 0 0 0 0 0 0 0 0 0 0
0 0 0 0 0 0 0 0 0 0 0 0 0 0 0 0 0 0 0 0 0 0 0 0 0 0 0 0 0 0 0 0 0 0 0 0 0 0
0 0 0 0 0 0 0 0 0 0 0 0 0 0 0 0 0 0 0 0 0 0 0 0 0 0 0 0 0 0 0 0 0 0 0 0 0 0
0 0 0 0 0 0 0 0 0 0 0 0 0 0 0 0 0 0 0 0 0 0 0 0 0 0 0 0 0 0 0 0 0 0 0 0 0 0
0 0 0 0 0 0 0 0 0 0 0 0 0 0 0 0 0 0 0 0 0 0 0 0 0 0 0 0 0 0 0 0 0 0 0 0 0 0
0 0 0 0 0 0 0 0 0 0 0 0 0 0 0 0 0 0 0 0 0 0 0 0 0 0 0 0 0 0 0 0 0 0 0 0 0 0
0 0 0 0 0 0 0 0 0 0 0 0 0 0 0 0 0 0 0 0 0 0 0 0 0 0 0 0 0 0 0 0 0 0 0 0 0 0
0 0 0 0 0 0 0 0 0 0 0 0 0 0 0 0 0 0 0 0 0 0 0 0 0 0 0 0 0 0 0 0 0 0 0 0 0 0
0 0 0 0 0 0 0 0 0 0 0 0 0 0 0 0 0 0 0 0 0 0 0 0 0 0 0 0 0 0 0 0 0 0 0 0 0 0
0 0 0 0 0 0 0 0 0 0 0 0 0 0 0 0 0 0 0 0 0 0 0 0 0 0 0 0 0 0 0 0 0 0 0 0 0 0
0 0 0 0 0 0 0 0 0 0 0 0 0 0 0 0 0 0 0 0 0 0 0 0 0 0 0 0 0 0 0 0 0 0 0 0 0 0
0 0 0 0 0 0 0 0 0 0 0 0 0 0 0 0 0 0 0 0 0 0 0 0 0 0 0 0 0 0 0 0 0 0 0 0 0 0
0 0 0 0 0 0 0 0 0 0 0 0 0 0 0 0 0 0 0 0 0 0 0 0 0 0 0 0 0 0 0 0 0 0 0 0 0 0
Wind_Speed_500mb
23 24 27 35 67 63 69 66 70 58 58 67 72 64 53 51 41 32 32 23 20 20 20 17 15 21 27 26 30 29 29 28 27 25 23 22 21 21
22 26 26 35 55 47 57 28 51 81 72 65 67 63 53 44 37 29 28 24 19 16 17 15 14 20 27 32 27 27 28 27 24 21 20 19 19 19
21 31 33 35 39 45 41 33 46 73 86 73 66 59 50 44 41 31 25 21 21 16 13 11 13 9 15 18 19 21 21 21 18 15 15 14 15 17
23 29 31 37 30 38 37 36 50 70 76 81 69 59 50 44 38 33 26 19 17 15 11 9 10 6 7 7 7 13 12 12 12 9 10 11 13 13
22 24 31 34 35 35 31 39 51 57 72 75 75 62 54 44 37 32 25 21 16 9 11 3 8 1 6 7 9 14 12 11 9 7 7 8 11 13
23 26 30 32 29 24 29 36 44 62 75 74 69 62 54 49 39 35 28 21 16 12 10 3 5 2 10 11 14 17 15 11 9 6 4 6 9 11
23 27 28 29 28 30 26 33 43 57 70 73 70 69 64 52 43 40 31 22 21 15 14 7 3 1 10 11 19 20 16 12 8 5 2 3 7 9
30 31 28 30 31 31 26 26 29 45 70 73 70 61 52 38 43 42 41 32 28 23 18 11 3 4 10 17 23 22 17 14 10 7 3 2 5 7
31 31 33 34 36 37 32 27 34 48 57 54 60 49 47 42 49 50 46 32 29 18 22 19 10 8 14 16 25 25 20 17 14 10 7 3 3 6
31 32 33 37 40 43 42 36 37 32 41 48 60 47 48 48 45 49 49 46 39 30 27 27 18 13 17 20 24 27 25 22 18 14 11 6 5 7
31 33 31 33 43 47 50 48 40 39 40 42 44 41 41 47 48 53 53 49 43 36 32 30 24 20 18 24 24 29 27 26 22 19 15 11 8 9
34 34 35 34 40 46 54 52 51 46 37 47 51 49 46 41 43 52 52 47 45 40 38 38 31 20 17 27 29 27 31 30 28 25 20 16 13 13
37 39 37 39 41 49 54 58 53 50 47 50 46 46 44 40 41 45 45 52 45 48 32 34 37 28 27 30 18 31 33 36 34 31 25 22 19 17
37 36 35 37 34 41 52 54 52 54 49 50 47 40 39 40 42 45 46 52 52 53 49 38 34 34 28 29 30 28 32 39 38 35 32 29 25 22
36 37 39 35 36 42 47 49 59 60 53 51 45 42 40 47 43 44 46 54 55 54 56 53 43 39 36 33 37 31 39 34 42 41 38 34 31 28
31 32 35 38 43 43 49 51 54 54 53 50 45 44 47 47 48 43 45 47 55 59 60 62 58 52 50 43 40 42 38 31 33 44 46 43 40 36
21 28 38 39 40 37 39 49 49 48 51 50 49 47 47 51 49 47 48 52 56 55 59 61 62 64 59 56 50 49 47 47 41 44 42 48 48 43
23 20 26 30 36 38 41 38 53 55 56 58 57 55 54 52 54 56 59 59 62 63 61 58 60 64 66 66 63 61 60 55 50 49 51 53 48 47
23 20 17 14 12 24 32 41 44 42 47 49 52 52 54 58 57 62 63 66 67 69 69 66 65 67 72 77 64 69 71 62 58 56 52 57 56 51
25 23 22 22 23 25 25 24 34 43 44 47 53 59 63 63 65 64 63 62 65 69 74 76 75 76 77 76 75 70 61 60 59 55 54 55 61 61
28 28 30 30 33 30 28 30 32 33 38 51 57 58 57 57 61 63 62 63 65 69 75 77 77 77 75 76 75 76 70 64 59 56 54 56 61 67
41 39 37 37 35 33 34 35 33 31 29 30 33 42 54 58 61 64 68 69 69 71 73 72 75 73 74 81 83 83 79 72 65 62 63 61 61 67
27 29 32 33 35 35 33 35 34 34 33 32 35 39 38 40 45 50 55 58 62 63 64 68 71 72 73 76 78 89 89 83 76 73 71 67 64 69
Wind_Direction_500mb
161 147 163 154 157 157 148 137 141 138 130 139 135 146 156 157 155 151 137 131 110 108 104 89 90 128 144 145 122 126 118 114 109 106 95 88 80 70
166 161 162 175 175 166 160 152 161 152 143 146 146 151 160 158 158 159 146 142 125 105 84 69 69 125 126 125 136 130 123 119 112 108 97 87 80 70
164 164 162 167 169 177 180 185 172 164 157 153 156 158 161 170 166 171 165 149 127 111 104 57 60 98 145 146 147 154 138 132 122 111 102 82 67 67
161 177 178 179 185 186 198 194 181 173 169 162 162 164 169 177 178 183 170 150 136 134 116 52 39 83 160 155 152 146 150 129 125 109 89 63 46 53
162 166 168 167 166 169 192 203 192 187 178 171 169 173 175 183 186 182 177 171 160 162 147 57 17 250 204 201 190 165 151 142 132 109 84 58 40 32
173 163 171 178 184 188 194 197 204 193 189 180 177 177 185 184 195 192 183 185 184 183 199 226 352 290 200 210 192 177 163 162 148 124 84 50 35 23
184 191 195 193 200 203 207 204 205 199 196 185 185 186 191 191 199 201 200 203 202 204 211 221 336 316 200 192 195 187 173 176 172 154 125 28 21 14
210 207 202 200 201 202 209 225 220 205 195 202 199 199 198 205 211 215 212 206 211 225 220 228 314 275 203 208 207 194 185 195 192 196 220 306 360 2
218 216 216 212 205 206 199 210 209 215 225 224 207 206 216 226 222 221 218 224 231 233 222 231 248 264 232 232 221 205 199 209 213 219 227 263 327 342
219 221 224 224 214 205 198 203 202 205 221 222 215 226 239 231 229 229 221 223 224 224 217 223 246 265 248 240 232 217 211 217 222 224 225 242 282 301
222 221 226 221 215 212 205 204 209 207 217 221 224 237 242 245 238 225 226 226 226 230 226 228 241 258 261 249 244 226 222 225 230 231 227 235 260 278
227 230 225 224 217 219 218 209 215 207 217 231 231 238 242 245 244 235 240 232 234 236 237 230 238 252 270 254 242 235 229 235 237 237 232 237 251 258
233 230 235 229 221 217 226 222 217 212 226 231 239 235 236 237 232 225 233 238 246 243 245 235 240 246 257 267 269 243 236 233 236 237 238 242 248 254
233 237 242 236 229 235 227 226 223 226 232 238 236 234 237 239 233 228 229 231 235 237 243 245 244 246 266 269 267 256 246 240 238 238 239 240 244 249
239 238 238 244 240 235 231 228 225 228 226 237 240 235 242 242 243 240 231 230 236 237 238 241 245 243 246 260 270 269 255 254 245 243 242 243 245 250
249 245 244 241 231 239 237 228 229 232 232 243 238 237 241 245 247 245 243 240 240 240 238 238 238 239 239 246 259 268 265 255 254 245 244 246 247 250
236 263 265 231 238 232 238 233 231 233 232 233 234 240 241 247 249 249 243 240 242 242 240 241 242 243 244 244 250 257 262 263 259 254 252 249 248 249
239 242 250 246 238 230 230 241 236 238 242 237 238 236 241 248 254 253 251 247 244 243 238 241 244 242 243 245 247 253 254 257 261 257 252 252 249 245
227 221 213 222 226 240 242 238 241 241 238 238 237 239 244 249 259 259 257 254 251 247 246 242 239 241 242 245 251 251 253 256 260 262 258 255 257 251
244 242 235 230 235 247 258 262 254 240 239 245 243 246 247 250 257 260 258 257 256 253 250 248 242 241 244 248 253 258 260 260 262 266 261 258 255 253
250 253 258 256 249 246 255 260 259 263 259 248 242 246 257 253 256 260 258 260 259 256 255 256 255 251 249 248 249 254 257 257 256 260 262 260 257 253
244 250 252 255 259 257 253 255 261 261 264 266 268 264 259 258 259 258 257 259 259 261 262 265 263 259 252 248 250 254 256 255 255 251 256 256 255 255
248 247 245 247 251 255 254 253 255 258 264 267 266 266 268 269 266 264 262 262 261 262 261 263 264 264 261 255 253 251 254 254 253 254 256 260 259 256
Wind_Speed_850mb
23 24 27 35 67 63 69 66 70 58 58 67 72 64 53 51 41 32 32 23 20 20 20 17 15 21 27 26 30 29 29 28 27 25 23 22 21 21
22 26 26 35 55 47 57 28 51 81 72 65 67 63 53 44 37 29 28 24 19 16 17 15 14 20 27 32 27 27 28 27 24 21 20 19 19 19
21 31 33 35 39 45 41 33 46 73 86 73 66 59 50 44 41 31 25 21 21 16 13 11 13 9 15 18 19 21 21 21 18 15 15 14 15 17
23 29 31 37 30 38 37 36 50 70 76 81 69 59 50 44 38 33 26 19 17 15 11 9 10 6 7 7 7 13 12 12 12 9 10 11 13 13
22 24 31 34 35 35 31 39 51 57 72 75 75 62 54 44 37 32 25 21 16 9 11 3 8 1 6 7 9 14 12 11 9 7 7 8 11 13
23 26 30 32 29 24 29 36 44 62 75 74 69 62 54 49 39 35 28 21 16 12 10 3 5 2 10 11 14 17 15 11 9 6 4 6 9 11
23 27 28 29 28 30 26 33 43 57 70 73 70 69 64 52 43 40 31 22 21 15 14 7 3 1 10 11 19 20 16 12 8 5 2 3 7 9
30 31 28 30 31 31 26 26 29 45 70 73 70 61 52 38 43 42 41 32 28 23 18 11 3 4 10 17 23 22 17 14 10 7 3 2 5 7
31 31 33 34 36 37 32 27 34 48 57 54 60 49 47 42 49 50 46 32 29 18 22 19 10 8 14 16 25 25 20 17 14 10 7 3 3 6
31 32 33 37 40 43 42 36 37 32 41 48 60 47 48 48 45 49 49 46 39 30 27 27 18 13 17 20 24 27 25 22 18 14 11 6 5 7
31 33 31 33 43 47 50 48 40 39 40 42 44 41 41 47 48 53 53 49 43 36 32 30 24 20 18 24 24 29 27 26 22 19 15 11 8 9
34 34 35 34 40 46 54 52 51 46 37 47 51 49 46 41 43 52 52 47 45 40 38 38 31 20 17 27 29 27 31 30 28 25 20 16 13 13
37 39 37 39 41 49 54 58 53 50 47 50 46 46 44 40 41 45 45 52 45 48 32 34 37 28 27 30 18 31 33 36 34 31 25 22 19 17
37 36 35 37 34 41 52 54 52 54 49 50 47 40 39 40 42 45 46 52 52 53 49 38 34 34 28 29 30 28 32 39 38 35 32 29 25 22
36 37 39 35 36 42 47 49 59 60 53 51 45 42 40 47 43 44 46 54 55 54 56 53 43 39 36 33 37 31 39 34 42 41 38 34 31 28
31 32 35 38 43 43 49 51 54 54 53 50 45 44 47 47 48 43 45 47 55 59 60 62 58 52 50 43 40 42 38 31 33 44 46 43 40 36
21 28 38 39 40 37 39 49 49 48 51 50 49 47 47 51 49 47 48 52 56 55 59 61 62 64 59 56 50 49 47 47 41 44 42 48 48 43
23 20 26 30 36 38 41 38 53 55 56 58 57 55 54 52 54 56 59 59 62 63 61 58 60 64 66 66 63 61 60 55 50 49 51 53 48 47
23 20 17 14 12 24 32 41 44 42 47 49 52 52 54 58 57 62 63 66 67 69 69 66 65 67 72 77 64 69 71 62 58 56 52 57 56 51
25 23 22 22 23 25 25 24 34 43 44 47 53 59 63 63 65 64 63 62 65 69 74 76 75 76 77 76 75 70 61 60 59 55 54 55 61 61
28 28 30 30 33 30 28 30 32 33 38 51 57 58 57 57 61 63 62 63 65 69 75 77 77 77 75 76 75 76 70 64 59 56 54 56 61 67
41 39 37 37 35 33 34 35 33 31 29 30 33 42 54 58 61 64 68 69 69 71 73 72 75 73 74 81 83 83 79 72 65 62 63 61 61 67
27 29 32 33 35 35 33 35 34 34 33 32 35 39 38 40 45 50 55 58 62 63 64 68 71 72 73 76 78 89 89 83 76 73 71 67 64 69
Wind_Direction_850mb
161 147 163 154 157 157 148 137 141 138 130 139 135 146 156 157 155 151 137 131 110 108 104 89 90 128 144 145 122 126 118 114 109 106 95 88 80 70
166 161 162 175 175 166 160 152 161 152 143 146 146 151 160 158 158 159 146 142 125 105 84 69 69 125 126 125 136 130 123 119 112 108 97 87 80 70
164 164 162 167 169 177 180 185 172 164 157 153 156 158 161 170 166 171 165 149 127 111 104 57 60 98 145 146 147 154 138 132 122 111 102 82 67 67
161 177 178 179 185 186 198 194 181 173 169 162 162 164 169 177 178 183 170 150 136 134 116 52 39 83 160 155 152 146 150 129 125 109 89 63 46 53
162 166 168 167 166 169 192 203 192 187 178 171 169 173 175 183 186 182 177 171 160 162 147 57 17 250 204 201 190 165 151 142 132 109 84 58 40 32
173 163 171 178 184 188 194 197 204 193 189 180 177 177 185 184 195 192 183 185 184 183 199 226 352 290 200 210 192 177 163 162 148 124 84 50 35 23
184 191 195 193 200 203 207 204 205 199 196 185 185 186 191 191 199 201 200 203 202 204 211 221 336 316 200 192 195 187 173 176 172 154 125 28 21 14
210 207 202 200 201 202 209 225 220 205 195 202 199 199 198 205 211 215 212 206 211 225 220 228 314 275 203 208 207 194 185 195 192 196 220 306 360 2
218 216 216 212 205 206 199 210 209 215 225 224 207 206 216 226 222 221 218 224 231 233 222 231 248 264 232 232 221 205 199 209 213 219 227 263 327 342
219 221 224 224 214 205 198 203 202 205 221 222 215 226 239 231 229 229 221 223 224 224 217 223 246 265 248 240 232 217 211 217 222 224 225 242 282 301
222 221 226 221 215 212 205 204 209 207 217 221 224 237 242 245 238 225 226 226 226 230 226 228 241 258 261 249 244 226 222 225 230 231 227 235 260 278
227 230 225 224 217 219 218 209 215 207 217 231 231 238 242 245 244 235 240 232 234 236 237 230 238 252 270 254 242 235 229 235 237 237 232 237 251 258
233 230 235 229 221 217 226 222 217 212 226 231 239 235 236 237 232 225 233 238 246 243 245 235 240 246 257 267 269 243 236 233 236 237 238 242 248 254
233 237 242 236 229 235 227 226 223 226 232 238 236 234 237 239 233 228 229 231 235 237 243 245 244 246 266 269 267 256 246 240 238 238 239 240 244 249
239 238 238 244 240 235 231 228 225 228 226 237 240 235 242 242 243 240 231 230 236 237 238 241 245 243 246 260 270 269 255 254 245 243 242 243 245 250
249 245 244 241 231 239 237 228 229 232 232 243 238 237 241 245 247 245 243 240 240 240 238 238 238 239 239 246 259 268 265 255 254 245 244 246 247 250
236 263 265 231 238 232 238 233 231 233 232 233 234 240 241 247 249 249 243 240 242 242 240 241 242 243 244 244 250 257 262 263 259 254 252 249 248 249
239 242 250 246 238 230 230 241 236 238 242 237 238 236 241 248 254 253 251 247 244 243 238 241 244 242 243 245 247 253 254 257 261 257 252 252 249 245
227 221 213 222 226 240 242 238 241 241 238 238 237 239 244 249 259 259 257 254 251 247 246 242 239 241 242 245 251 251 253 256 260 262 258 255 257 251
244 242 235 230 235 247 258 262 254 240 239 245 243 246 247 250 257 260 258 257 256 253 250 248 242 241 244 248 253 258 260 260 262 266 261 258 255 253
250 253 258 256 249 246 255 260 259 263 259 248 242 246 257 253 256 260 258 260 259 256 255 256 255 251 249 248 249 254 257 257 256 260 262 260 257 253
244 250 252 255 259 257 253 255 261 261 264 266 268 264 259 258 259 258 257 259 259 261 262 265 263 259 252 248 250 254 256 255 255 251 256 256 255 255
248 247 245 247 251 255 254 253 255 258 264 267 266 266 268 269 266 264 262 262 261 262 261 263 264 264 261 255 253 251 254 254 253 254 256 260 259 256